Weather History for Chillicothe, MO

Change the Weather History Date:

Tuesday, January 29, 2013

  Actual Average (KIRK) Record (KIRK)
Temperature  
Mean Temperature 50 °F 27 °F  
Max Temperature 66 °F 36 °F 63 °F (2013)
Min Temperature 34 °F 17 °F -17 °F (1966)
Degree Days  
Heating Degree Days 14 38  
Month to date heating degree days 1130  
Since 1 July heating degree days 3473  
Cooling Degree Days 0 0  
Month to date cooling degree days 0  
Year to date cooling degree days 0  
Moisture  
Dew Point 46 °F    
Average Humidity 88    
Maximum Humidity 97    
Minimum Humidity 75    
Precipitation  
Precipitation 1.16 in 0.06 in 1.63 in (1982)
Month to date precipitation 1.14  
Year to date precipitation 1.14  
Sea Level Pressure  
Sea Level Pressure 29.58 in    
Wind  
Wind Speed 10 mph (NW)    
Max Wind Speed 17 mph    
Max Gust Speed 24 mph    
T = Trace of Precipitation, MM = Missing Value Source: NWS Daily Summary

Daily Weather History Graph

Daily Weather History Graph

Search for Another Location

Airport:

Trip Planner

Search our weather history database for the weather conditions in past years. The results will help you decide how hot, cold, wet, or windy it might be!

Date:

Astronomy

Jan. 29, 2013 Rise Set
Actual Time 7:24 AM CST 5:30 PM CST
Civil Twilight 6:56 AM CST 5:59 PM CST
Nautical Twilight 6:23 AM CST 6:31 PM CST
Astronomical Twilight 5:51 AM CST 7:03 PM CST
Moon 8:27 PM CST (1/29) 8:22 AM CST (1/29)
Length of Visible Light 11h 03m
Length of Day
10h 05m
Waning Gibbous, 93% of the Moon is Illuminated
Jan 29
Waning Gibbous
Feb 3
Last Quarter
Feb 10
New
Feb 17
First Quarter
Feb 25
Full

Hourly Weather History & Observations

Time (CST) Temp. Windchill Dew Point Humidity Pressure Visibility Wind Dir Wind Speed Gust Speed Precip Events Conditions
12:52 AM 64.9 °F - 57.9 °F 78% 29.63 in - South 11.5 mph - N/A   Unknown
1:52 AM 66.0 °F - 57.9 °F 75% 29.61 in - South 11.5 mph 21.9 mph N/A   Unknown
2:52 AM 64.9 °F - 57.9 °F 78% 29.60 in - South 13.8 mph 21.9 mph N/A   Unknown
3:52 AM 64.9 °F - 57.9 °F 78% 29.57 in - South 16.1 mph 24.2 mph N/A   Unknown
4:52 AM 64.9 °F - 57.9 °F 78% 29.57 in - South 17.3 mph 24.2 mph N/A   Unknown
5:52 AM 64.0 °F - 57.9 °F 80% 29.57 in - South 12.7 mph 20.7 mph N/A   Unknown
6:52 AM 62.1 °F - 57.0 °F 84% 29.56 in - South 10.4 mph - N/A   Unknown
7:52 AM 62.1 °F - 57.0 °F 84% 29.56 in - South 8.1 mph - N/A   Unknown
8:52 AM 54.0 °F - 51.1 °F 90% 29.61 in - NNW 8.1 mph - N/A   Unknown
9:52 AM 50.0 °F - 48.0 °F 93% 29.64 in - Calm Calm - 0.24 in   Unknown
10:52 AM 46.9 °F - 45.0 °F 93% 29.66 in - WNW 5.8 mph - 0.26 in   Unknown
11:52 AM 46.0 °F 43.9 °F 44.1 °F 93% 29.62 in - NNW 4.6 mph - 0.23 in   Unknown
12:52 PM 45.0 °F 42.6 °F 43.0 °F 93% 29.57 in - North 4.6 mph - 0.08 in   Unknown
1:52 PM 45.0 °F - 44.1 °F 97% 29.52 in - Calm Calm - 0.08 in   Unknown
2:52 PM 44.1 °F 40.1 °F 42.1 °F 93% 29.50 in - NNW 6.9 mph - 0.02 in   Unknown
3:52 PM 41.0 °F 37.1 °F 39.0 °F 93% 29.54 in - North 5.8 mph - 0.01 in   Unknown
4:52 PM 39.0 °F 31.0 °F 37.0 °F 93% 29.53 in - NNW 13.8 mph 23.0 mph 0.03 in   Unknown
5:52 PM 37.0 °F 31.0 °F 36.0 °F 96% 29.56 in - North 8.1 mph - N/A   Unknown
6:52 PM 37.0 °F 30.4 °F 35.1 °F 93% 29.55 in - North 9.2 mph 16.1 mph N/A   Unknown
7:52 PM 37.0 °F 30.4 °F 35.1 °F 93% 29.56 in - North 9.2 mph - 0.01 in   Unknown
8:52 PM 36.0 °F 30.3 °F 34.0 °F 93% 29.59 in - North 6.9 mph - 0.10 in   Unknown
9:52 PM 36.0 °F 28.5 °F 33.1 °F 89% 29.56 in - North 10.4 mph 17.3 mph 0.03 in   Unknown
10:52 PM 35.1 °F 28.6 °F 32.0 °F 89% 29.55 in - North 8.1 mph 18.4 mph N/A   Unknown
11:52 PM 34.0 °F 29.8 °F 32.0 °F 92% 29.58 in - Variable 4.6 mph - 0.07 in   Unknown